Wahpeton, MN

1:17 AM CDT on May 26, 2017 (GMT -0500)
Stern

Weather History for KBWP - April, 2013

Change the Weather History Date:

Friday, April 12, 2013

  Actual Average (KFFM) Record (KFFM)
Temperature  
Mean Temperature 30 °F -  
Max Temperature 32 °F 49 °F 75 °F (1968)
Min Temperature 28 °F 31 °F 10 °F (1950)
Degree Days  
Heating Degree Days 35    
Moisture  
Dew Point 26 °F    
Average Humidity 85    
Maximum Humidity 93    
Minimum Humidity 75    
Precipitation  
Precipitation 0.05 in - - ()
Sea Level Pressure  
Sea Level Pressure 29.84 in    
Wind  
Wind Speed 11 mph (NNW)    
Max Wind Speed 17 mph    
Max Gust Speed 25 mph    
Visibility 9 miles    
Events      
Averages and records for this station are not official NWS values.
T = Trace of Precipitation, MM = Missing Value Source: NWS Daily Summary

Daily Weather History Graph

Daily Weather History Graph

Search for Another Location

Airport or City:

Trip Planner

Search our weather history database for the weather conditions in past years. The results will help you decide how hot, cold, wet, or windy it might be!

Date:

Astronomy

Apr. 12, 2013 Rise Set
Actual Time 6:44 AM CDT 8:10 PM CDT
Civil Twilight 6:13 AM CDT 8:41 PM CDT
Nautical Twilight 5:36 AM CDT 9:19 PM CDT
Astronomical Twilight 4:55 AM CDT 10:00 PM CDT
Moon 7:48 AM CDT (4/12) 10:50 PM CDT (4/12)
Length of Visible Light 14h 27m
Length of Day
13h 25m
Waxing Crescent, 5% of the Moon is Illuminated
Apr 12
Waxing Crescent
Apr 18
First Quarter
Apr 25
Full
May 2
Last Quarter
May 9
New

Hourly Weather History & Observations

Time (CDT) Temp. Windchill Dew Point Humidity Pressure Visibility Wind Dir Wind Speed Gust Speed Precip Events Conditions
12:15 AM 30.2 °F 22.6 °F 26.6 °F 86% 29.83 in 10.0 mi North 8.1 mph - N/A   Overcast
12:35 AM 28.4 °F 19.7 °F 26.6 °F 93% 29.83 in 10.0 mi North 9.2 mph - N/A   Overcast
12:55 AM 28.4 °F 19.7 °F 26.6 °F 93% 29.83 in 10.0 mi North 9.2 mph - N/A   Overcast
1:15 AM 28.4 °F 19.7 °F 26.6 °F 93% 29.82 in 10.0 mi North 9.2 mph - N/A   Overcast
1:35 AM 28.4 °F 19.7 °F 26.6 °F 93% 29.82 in 10.0 mi North 9.2 mph - N/A   Overcast
1:55 AM 28.4 °F 19.1 °F 26.6 °F 93% 29.82 in 10.0 mi North 10.4 mph - N/A   Overcast
2:15 AM 28.4 °F 19.1 °F 26.6 °F 93% 29.81 in 10.0 mi North 10.4 mph - N/A   Overcast
2:35 AM 28.4 °F 19.7 °F 26.6 °F 93% 29.81 in 10.0 mi NNE 9.2 mph - N/A   Overcast
2:55 AM 28.4 °F 19.7 °F 26.6 °F 93% 29.80 in 10.0 mi North 9.2 mph - N/A   Overcast
3:15 AM 28.4 °F 19.7 °F 26.6 °F 93% 29.80 in 10.0 mi North 9.2 mph - N/A   Overcast
3:35 AM 28.4 °F 19.7 °F 24.8 °F 86% 29.80 in 10.0 mi North 9.2 mph - N/A   Overcast
3:55 AM 28.4 °F 19.7 °F 24.8 °F 86% 29.80 in 10.0 mi North 9.2 mph - N/A   Overcast
4:15 AM 28.4 °F 18.5 °F 24.8 °F 86% 29.80 in 10.0 mi North 11.5 mph - N/A   Overcast
4:55 AM 28.4 °F 19.1 °F 23.0 °F 80% 29.81 in 10.0 mi North 10.4 mph - N/A   Overcast
5:15 AM 28.4 °F 18.5 °F 23.0 °F 80% 29.80 in 10.0 mi North 11.5 mph - N/A   Overcast
5:35 AM 28.4 °F 19.1 °F 23.0 °F 80% 29.80 in 10.0 mi North 10.4 mph - N/A   Overcast
5:55 AM 28.4 °F 18.5 °F 23.0 °F 80% 29.80 in 10.0 mi North 11.5 mph - N/A   Overcast
6:15 AM 28.4 °F 18.5 °F 23.0 °F 80% 29.80 in 10.0 mi North 11.5 mph - N/A   Overcast
6:35 AM 28.4 °F 19.1 °F 23.0 °F 80% 29.80 in 10.0 mi North 10.4 mph - N/A   Overcast
6:55 AM 28.4 °F 19.1 °F 23.0 °F 80% 29.81 in 10.0 mi North 10.4 mph - N/A   Overcast
7:15 AM 28.4 °F 18.5 °F 23.0 °F 80% 29.81 in 10.0 mi North 11.5 mph - N/A   Overcast
7:35 AM 28.4 °F 18.5 °F 23.0 °F 80% 29.81 in 7.0 mi North 11.5 mph - N/A   Overcast
7:55 AM 28.4 °F 19.1 °F 24.8 °F 86% 29.81 in 7.0 mi North 10.4 mph - N/A   Overcast
8:15 AM 28.4 °F 19.1 °F 24.8 °F 86% 29.81 in 10.0 mi North 10.4 mph - N/A   Overcast
8:35 AM 28.4 °F 18.0 °F 24.8 °F 86% 29.81 in 10.0 mi North 12.7 mph - N/A   Unknown
8:55 AM 28.4 °F 18.0 °F 24.8 °F 86% 29.82 in 10.0 mi North 12.7 mph - N/A   Unknown
9:15 AM 28.4 °F 18.5 °F 24.8 °F 86% 29.82 in 10.0 mi North 11.5 mph - N/A   Unknown
9:35 AM 30.2 °F 20.2 °F 24.8 °F 80% 29.82 in 10.0 mi North 12.7 mph - 0.01 in   Unknown
9:55 AM 30.2 °F 20.8 °F 24.8 °F 80% 29.82 in 10.0 mi North 11.5 mph - 0.01 in   Unknown
10:15 AM 30.2 °F 20.2 °F 24.8 °F 80% 29.82 in 10.0 mi North 12.7 mph - N/A   Unknown
10:35 AM 30.2 °F 20.8 °F 26.6 °F 86% 29.82 in 10.0 mi North 11.5 mph - 0.02 in   Unknown
10:55 AM 32.0 °F 22.5 °F 26.6 °F 80% 29.83 in 10.0 mi NNW 12.7 mph - 0.04 in   Unknown
11:15 AM 32.0 °F 23.0 °F 26.6 °F 80% 29.83 in 10.0 mi NNW 11.5 mph - N/A   Unknown
11:35 AM 32.0 °F 23.0 °F 26.6 °F 80% 29.84 in 10.0 mi North 11.5 mph - N/A   Unknown
11:55 AM 32.0 °F 23.0 °F 24.8 °F 75% 29.84 in 10.0 mi NNW 11.5 mph - N/A   Unknown
12:15 PM 32.0 °F 22.5 °F 26.6 °F 80% 29.84 in 10.0 mi NNW 12.7 mph - N/A   Unknown
12:35 PM 32.0 °F 22.1 °F 26.6 °F 80% 29.84 in 10.0 mi NNW 13.8 mph - N/A   Unknown
12:55 PM 32.0 °F 22.1 °F 26.6 °F 80% 29.84 in 10.0 mi NNW 13.8 mph 17.3 mph N/A   Unknown
1:15 PM 32.0 °F 22.5 °F 26.6 °F 80% 29.84 in 10.0 mi NNW 12.7 mph - N/A   Unknown
1:35 PM 32.0 °F 22.5 °F 26.6 °F 80% 29.84 in 10.0 mi NNW 12.7 mph - N/A   Unknown
1:55 PM 32.0 °F 21.6 °F 26.6 °F 80% 29.84 in 7.0 mi NNW 15.0 mph - N/A   Unknown
2:15 PM 32.0 °F 21.6 °F 26.6 °F 80% 29.84 in 7.0 mi NNW 15.0 mph - N/A   Unknown
2:35 PM 32.0 °F 20.8 °F 26.6 °F 80% 29.85 in 10.0 mi North 17.3 mph - N/A   Unknown
2:55 PM 32.0 °F 21.2 °F 26.6 °F 80% 29.85 in 10.0 mi North 16.1 mph 20.7 mph N/A   Unknown
3:15 PM 32.0 °F 20.8 °F 26.6 °F 80% 29.85 in 10.0 mi North 17.3 mph 20.7 mph N/A   Unknown
3:35 PM 32.0 °F 20.8 °F 26.6 °F 80% 29.85 in 10.0 mi North 17.3 mph - N/A   Unknown
3:55 PM 32.0 °F 20.8 °F 26.6 °F 80% 29.85 in 10.0 mi North 17.3 mph 25.3 mph N/A   Unknown
4:15 PM 32.0 °F 20.8 °F 26.6 °F 80% 29.85 in 7.0 mi North 17.3 mph - N/A   Unknown
4:35 PM 32.0 °F 22.5 °F 26.6 °F 80% 29.85 in 10.0 mi NNW 12.7 mph 18.4 mph N/A   Unknown
4:55 PM 32.0 °F 21.2 °F 26.6 °F 80% 29.86 in 10.0 mi NNW 16.1 mph - N/A   Unknown
5:15 PM 32.0 °F 21.6 °F 26.6 °F 80% 29.86 in 10.0 mi North 15.0 mph 20.7 mph N/A   Unknown
5:35 PM 32.0 °F 21.2 °F 26.6 °F 80% 29.87 in 10.0 mi NNW 16.1 mph - N/A   Unknown
5:55 PM 32.0 °F 21.2 °F 26.6 °F 80% 29.87 in 10.0 mi NNW 16.1 mph - N/A   Unknown
6:15 PM 32.0 °F 23.0 °F 26.6 °F 80% 29.87 in 10.0 mi NNW 11.5 mph - N/A   Unknown
6:55 PM 32.0 °F 23.0 °F 28.4 °F 87% 29.88 in 10.0 mi NNW 11.5 mph - N/A   Unknown
7:15 PM 30.2 °F 20.2 °F 28.4 °F 93% 29.88 in 10.0 mi NNW 12.7 mph 16.1 mph N/A   Unknown
7:35 PM 30.2 °F 21.9 °F 28.4 °F 93% 29.88 in 10.0 mi NNW 9.2 mph - N/A   Overcast
7:55 PM 30.2 °F 20.2 °F 28.4 °F 93% 29.88 in 7.0 mi NNW 12.7 mph 19.6 mph N/A   Overcast
8:15 PM 30.2 °F 20.8 °F 28.4 °F 93% 29.89 in 7.0 mi NW 11.5 mph - N/A   Overcast
8:35 PM 30.2 °F 21.3 °F 28.4 °F 93% 29.89 in 4.0 mi NNW 10.4 mph - N/A   Unknown
8:55 PM 30.2 °F 21.3 °F 28.4 °F 93% 29.90 in 10.0 mi NNW 10.4 mph - N/A   Unknown
9:15 PM 30.2 °F 21.3 °F 28.4 °F 93% 29.90 in 10.0 mi NW 10.4 mph - N/A   Unknown
9:35 PM 30.2 °F 20.2 °F 28.4 °F 93% 29.90 in 7.0 mi NW 12.7 mph - N/A   Unknown
9:55 PM 30.2 °F 21.3 °F 28.4 °F 93% 29.91 in 10.0 mi NW 10.4 mph - N/A   Unknown
10:15 PM 30.2 °F 20.8 °F 28.4 °F 93% 29.91 in 2.5 mi NW 11.5 mph - N/A   Unknown
10:35 PM 30.2 °F 20.8 °F 28.4 °F 93% 29.91 in 5.0 mi NW 11.5 mph - N/A   Unknown
10:55 PM 30.2 °F 21.3 °F 28.4 °F 93% 29.91 in 3.0 mi NW 10.4 mph - N/A   Unknown
11:15 PM 30.2 °F 21.3 °F 26.6 °F 86% 29.91 in 7.0 mi NW 10.4 mph - N/A   Unknown
11:35 PM 28.4 °F 19.7 °F 26.6 °F 93% 29.90 in 5.0 mi NW 9.2 mph - N/A   Unknown
11:55 PM 28.4 °F 19.7 °F 26.6 °F 93% 29.90 in 4.0 mi WNW 9.2 mph - N/A   Unknown